Regional Weather Roundup
Issued by NWS Sioux Falls, SD

Home | Current Version | Previous Version | Text Only | Print | Product List | Glossary On
Versions: 1 2 3 4 5 6 7 8 9 10 11 12 13 14 15 16 17 18 19 20 21 22 23 24 25 26 27 28 29 30 31 32 33 34 35 36 37 38 39 40 41 42 43 44 45 46 47 48 49 50
000
ASUS43 KFSD 050810
RWRFSD

WEATHER ROUNDUP FOR SE SOUTH DAKOTA/SW MINNESOTA/NW IOWA
NATIONAL WEATHER SERVICE SIOUX FALLS SD
200 AM CST THU MAR 05 2015

NOTE: "FAIR" INDICATES FEW OR NO CLOUDS BELOW 12,000 FEET WITH NO
SIGNIFICANT WEATHER AND OR OBSTRUCTIONS TO VISIBILITY.


SDZ038>040-050-052>070-050900-
SOUTHEAST SOUTH DAKOTA

CITY           SKY/WX    TMP DP  RH WIND       PRES   REMARKS
CHAMBERLAIN    PTCLDY    -6 -11  80 E6        30.41S WCI -19
HURON          PTCLDY    -9 -14  78 S5        30.45F WCI -20
MADISON        FAIR     -11 -15  84 NW5       30.40S WCI -23
MITCHELL         N/A     -6 -10  83 CALM      30.47F
SIOUX FALLS    CLEAR     -7 -12  79 W3        30.44S
WINNER         FAIR       4  -7  60 S6        30.36F WCI  -7
YANKTON        CLEAR     -2  -8  78 NW6       30.48R WCI -14
$$

MNZ071-072-080-081-089-090-097-098-050900-
SOUTHWEST MINNESOTA

CITY           SKY/WX    TMP DP  RH WIND       PRES   REMARKS
FAIRMONT       CLEAR     -4 -11  71 NW7       30.42R WCI -18
JACKSON        CLEAR     -6 -13  71 NW7       30.42R WCI -20
LUVERNE        CLEAR     -6 -13  71 NW7       30.44S WCI -20
MARSHALL       CLEAR     -8 -17  65 W8        30.44F WCI -23
MONTEVIDEO     FAIR      -8 -13  77 NW5       30.47S WCI -19
PIPESTONE      CLEAR     -8 -11  84 NW5       30.38S WCI -19
REDWOOD FALLS  CLEAR     -6 -13  71 NW9       30.45S WCI -23
TRACY          CLEAR     -5 -13  69 W5        30.43S WCI -16
WINDOM         CLEAR     -6 -11  77 CALM      30.42R
WORTHINGTON    CLEAR     -6 -11  77 NW6       30.42S WCI -18
$$

IAZ001>003-012>014-020>022-031-032-NEZ013-014-SDZ071-050900-
NORTHWEST IOWA

CITY           SKY/WX    TMP DP  RH WIND       PRES   REMARKS
CHEROKEE       CLEAR     -5 -10  79 CALM      30.46S
DENISON        FAIR      -2  -9  71 CALM      30.45R
ESTHERVILLE    CLEAR     -5 -11  75 NW6       30.43R WCI -18
LE MARS        CLEAR     -2  -8  78 CALM      30.48R
ORANGE CITY    CLEAR      0  -8  71 CALM      30.44R
SHELDON        FAIR      -6 -13  71 NW5       30.43S WCI -17
SIOUX CITY     CLEAR      1  -5  75 CALM      30.49R
SPENCER        CLEAR     -6 -12  75 NW5       30.44R WCI -17
STORM LAKE     CLEAR     -4 -11  71 NW8       30.44R WCI -19
$$

ABBREVIATIONS USED IN REMARKS
   TC - TEMPERATURE IN CELSIUS
  WCI - WIND CHILL INDEX
   HX - HEAT INDEX
  VSB - VISIBILITY




USA.gov is the U.S. government's official web portal to all federal, state and local government web resources and services.